Location: Erba
(45.8000°N, 9.2500°E)
Time: 12:05:30
(UTC+02:00)

ISS - Pass Details

Date: 10 July 2020
Orbit: 417 x 420 km, 51.6° (Epoch: 02 July)

Event Time Altitude Azimuth Distance (km) Brightness Sun altitude
Rises 04:58:51 0° 296° (WNW) 2,363 -0.2 -7.0°
Reaches altitude 10° 05:01:02 10° 305° (NW) 1,497 -1.1 -6.7°
Maximum altitude 05:04:13 38° 15° (NNE) 650 -2.2 -6.3°
Drops below altitude 10° 05:07:23 10° 86° (E) 1,493 0.0 -5.9°
Sets 05:09:34 0° 95° (E) 2,354 0.8 -5.6°
